Retour au catalogue

COSMOS 2517

GEO-IK

ActifScienceSSO
NORAD 41579·PAYLOAD·🇷🇺 Russia

Lancé Jun 4, 2016 depuis Plesetsk Cosmodrome

Loading…

Prochains Passages (prochaines 24 heures)

TLE

FraisSource: Space-Track

Époque: Sep 14, 2026, 14:11 UTC

1 41579U 16034A   26257.59111216 -.00000027  00000-0  14648-4 0  9995
2 41579  99.1923 264.6927 0001133  85.7566 274.3720 13.85910356520016

Suivez COSMOS 2517 en temps réel avec AllMySat

Download on the App Store